Location: Long Geng
(2.6167°N, 114.1333°E)
Time: 23:02:53
(UTC+00:00)

Cosmos 2142 Rocket - Pass Details

Date: 14 May 2021
Orbit: 952 x 1005 km, 83.0° (Epoch: 12 June)

Event Time Altitude Azimuth Distance (km) Brightness Sun altitude
Rises 21:30:39 0° 355° (N) 3,631 7.7 -10.8°
Reaches altitude 10° 21:33:09 10° 354° (N) 2,681 7.0 -10.2°
Maximum altitude 21:39:16 82° 268° (W) 965 4.4 -8.7°
Drops below altitude 10° 21:45:23 10° 180° (S) 2,675 6.6 -7.3°
Sets 21:47:52 0° 179° (S) 3,622 7.3 -6.7°
